| time (UTC) | temp F | wind direction | speed MPH | gust MPH | rain 1hr in | rain 24hr in | rain mn in | humidity % | barometer mb |
| 20260902043033 | 75 | 152 | 0.0 | 2.0 | 0.00 | 0.00 | 0.00 | 78 | 1012.1 |
| 20260902041530 | 75 | 110 | 1.0 | 2.0 | 0.00 | 0.00 | 0.00 | 80 | 1012.2 |
| 20260902040032 | 75 | 140 | 0.0 | 2.0 | 0.00 | 0.00 | 0.00 | 79 | 1012.1 |
| 20260902034527 | 75 | 140 | 1.0 | 2.0 | 0.00 | 0.00 | 0.00 | 79 | 1012.0 |
| 20260902033027 | 75 | 135 | 0.0 | 0.0 | 0.00 | 0.00 | 0.00 | 79 | 1012.1 |
| 20260902031525 | 75 | 135 | 0.0 | 0.0 | 0.00 | 0.00 | 0.00 | 79 | 1012.1 |
| 20260902030025 | 75 | 135 | 0.0 | 0.0 | 0.00 | 0.00 | 0.00 | 80 | 1012.1 |
| 20260902024523 | 75 | 135 | 0.0 | 0.0 | 0.00 | 0.00 | 0.00 | 81 | 1012.1 |
| 20260902023027 | 75 | 135 | 0.0 | 1.0 | 0.00 | 0.00 | 0.00 | 83 | 1012.1 |
| 20260902021522 | 75 | 134 | 0.0 | 1.0 | 0.00 | 0.00 | 0.00 | 85 | 1012.1 |
| 20260902020025 | 76 | 134 | 0.0 | 1.0 | 0.00 | 0.00 | 0.00 | 87 | 1011.9 |
| 20260902014533 | 76 | 134 | 0.0 | 1.0 | 0.00 | 0.00 | 0.00 | 89 | 1012.0 |
| 20260902013022 | 76 | 132 | 0.0 | 1.0 | 0.00 | 0.00 | 0.00 | 90 | 1012.0 |
| 20260902011538 | 77 | 132 | 0.0 | 1.0 | 0.00 | 0.00 | 0.00 | 91 | 1011.9 |
| 20260902010020 | 77 | 140 | 0.0 | 0.0 | 0.00 | 0.00 | 0.00 | 92 | 1011.7 |
| 20260902004520 | 78 | 138 | 0.0 | 1.0 | 0.00 | 0.00 | 0.00 | 92 | 1011.5 |
| 20260902003020 | 78 | 131 | 0.0 | 1.0 | 0.00 | 0.00 | 0.00 | 92 | 1011.3 |
| 20260902001520 | 79 | 131 | 0.0 | 0.0 | 0.00 | 0.00 | 0.00 | 91 | 1011.4 |
| 20260902000018 | 79 | 131 | 0.0 | 1.0 | 0.00 | 0.00 | 0.00 | 90 | 1011.7 |
| 20260901234517 | 80 | 63 | 0.0 | 0.0 | 0.00 | 0.00 | 0.00 | 89 | 1011.7 |
| 20260901233017 | 79 | 50 | 0.0 | 4.0 | 0.00 | 0.00 | 0.00 | 90 | 1011.8 |
| 20260901231516 | 80 | 50 | 3.0 | 5.0 | 0.00 | 0.00 | 0.00 | 87 | 1011.8 |
| 20260901230016 | 81 | 46 | 4.0 | 5.0 | 0.00 | 0.00 | 0.00 | 86 | 1012.0 |
| 20260901224515 | 81 | 47 | 3.0 | 4.0 | 0.00 | 0.00 | 0.00 | 85 | 1012.0 |
| 20260901223017 | 80 | 47 | 4.0 | 5.0 | 0.00 | 0.00 | 0.00 | 85 | 1012.0 |
| 20260901221514 | 81 | 47 | 3.0 | 3.0 | 0.00 | 0.00 | 0.00 | 84 | 1012.0 |
| 20260901220013 | 81 | 53 | 2.0 | 3.0 | 0.00 | 0.00 | 0.00 | 84 | 1012.0 |
| 20260901214533 | 81 | 37 | 2.0 | 3.0 | 0.00 | 0.00 | 0.00 | 81 | 1012.1 |
| 20260901213012 | 81 | 38 | 0.0 | 2.0 | 0.00 | 0.00 | 0.00 | 84 | 1012.1 |
| 20260901211511 | 80 | 36 | 1.0 | 3.0 | 0.00 | 0.00 | 0.00 | 84 | 1012.2 |
| 20260901210010 | 81 | 33 | 1.0 | 2.0 | 0.00 | 0.00 | 0.00 | 84 | 1012.3 |
| 20260901204508 | 81 | 36 | 1.0 | 1.0 | 0.00 | 0.00 | 0.00 | 83 | 1012.2 |
| 20260901203006 | 80 | 32 | 0.0 | 1.0 | 0.00 | 0.00 | 0.00 | 88 | 1012.0 |
| 20260901201601 | 77 | 34 | 1.0 | 3.0 | 0.00 | 0.00 | 0.00 | 91 | 1012.2 |
| 20260901200110 | 76 | 39 | 2.0 | 3.0 | 0.00 | 0.00 | 0.00 | 92 | 1012.0 |
| 20260901194557 | 75 | 37 | 3.0 | 4.0 | 0.00 | 0.01 | 0.00 | 92 | 1012.1 |
| 20260901193055 | 75 | 32 | 3.0 | 4.0 | 0.00 | 0.01 | 0.00 | 92 | 1012.4 |
| 20260901191556 | 74 | 37 | 5.0 | 6.0 | 0.00 | 0.01 | 0.00 | 93 | 1012.7 |
| 20260901190055 | 74 | 37 | 3.0 | 4.0 | 0.00 | 0.01 | 0.00 | 93 | 1012.8 |
| 20260901184604 | 74 | 33 | 4.0 | 4.0 | 0.00 | 0.07 | 0.00 | 93 | 1013.0 |
| 20260901183105 | 74 | 37 | 5.0 | 6.0 | 0.00 | 0.07 | 0.00 | 92 | 1013.1 |
| 20260901181550 | 74 | 37 | 3.0 | 4.0 | 0.00 | 0.07 | 0.00 | 92 | 1013.0 |
| 20260901180049 | 75 | 22 | 3.0 | 4.0 | 0.00 | 0.07 | 0.00 | 91 | 1013.1 |
| 20260901174548 | 75 | 13 | 1.0 | 2.0 | 0.00 | 0.08 | 0.00 | 91 | 1012.9 |
| 20260901173047 | 75 | 295 | 1.0 | 2.0 | 0.00 | 0.08 | 0.00 | 91 | 1013.1 |
| 20260901171547 | 75 | 274 | 1.0 | 1.0 | 0.00 | 0.08 | 0.00 | 92 | 1013.1 |
| 20260901170043 | 75 | 273 | 1.0 | 2.0 | 0.00 | 0.08 | 0.00 | 92 | 1013.2 |
| 20260901164540 | 74 | 257 | 2.0 | 3.0 | 0.00 | 0.26 | 0.00 | 92 | 1013.2 |
| 20260901163046 | 74 | 242 | 3.0 | 4.0 | 0.00 | 0.26 | 0.00 | 93 | 1013.2 |
| 20260901161536 | 74 | 248 | 2.0 | 3.0 | 0.00 | 0.26 | 0.00 | 93 | 1013.4 |
| 20260901160038 | 74 | 248 | 3.0 | 4.0 | 0.00 | 0.26 | 0.00 | 93 | 1013.4 |
| 20260901154552 | 73 | 239 | 4.0 | 6.0 | 0.00 | 0.39 | 0.00 | 93 | 1013.2 |
| 20260901153040 | 73 | 239 | 5.0 | 6.0 | 0.00 | 0.39 | 0.00 | 93 | 1013.2 |
| 20260901151524 | 73 | 242 | 5.0 | 7.0 | 0.00 | 0.39 | 0.00 | 93 | 1013.3 |
| 20260901150021 | 73 | 238 | 5.0 | 6.0 | 0.00 | 0.39 | 0.00 | 93 | 1013.2 |
| 20260901144516 | 73 | 242 | 5.0 | 6.0 | 0.00 | 0.39 | 0.00 | 93 | 1013.1 |
| 20260901143011 | 73 | 245 | 4.0 | 5.0 | 0.00 | 0.39 | 0.00 | 93 | 1013.0 |
| 20260901141610 | 73 | 242 | 4.0 | 5.0 | 0.00 | 0.39 | 0.00 | 93 | 1013.0 |
| 20260901140005 | 73 | 253 | 3.0 | 6.0 | 0.00 | 0.39 | 0.00 | 93 | 1013.1 |
| 20260901134600 | 73 | 242 | 5.0 | 7.0 | 0.00 | 0.39 | 0.00 | 92 | 1012.9 |
| 20260901133055 | 73 | 246 | 6.0 | 8.0 | 0.00 | 0.39 | 0.00 | 92 | 1013.0 |
| 20260901131550 | 73 | 238 | 5.0 | 9.0 | 0.00 | 0.39 | 0.00 | 93 | 1013.0 |
| 20260901130046 | 73 | 243 | 4.0 | 9.0 | 0.00 | 0.39 | 0.00 | 93 | 1013.1 |
| 20260901124547 | 73 | 207 | 5.0 | 9.0 | 0.00 | 0.42 | 0.00 | 93 | 1013.2 |
| 20260901123041 | 72 | 239 | 4.0 | 7.0 | 0.00 | 0.42 | 0.00 | 93 | 1013.2 |
| 20260901121540 | 72 | 191 | 1.0 | 6.0 | 0.00 | 0.42 | 0.00 | 92 | 1013.0 |
| 20260901120037 | 72 | 215 | 3.0 | 6.0 | 0.00 | 0.42 | 0.00 | 93 | 1012.8 |
| 20260901114535 | 72 | 233 | 3.0 | 6.0 | 0.00 | 0.46 | 0.00 | 93 | 1012.7 |
| 20260901113042 | 72 | 222 | 2.0 | 5.0 | 0.00 | 0.46 | 0.00 | 93 | 1012.5 |
| 20260901111533 | 72 | 231 | 4.0 | 7.0 | 0.00 | 0.46 | 0.00 | 93 | 1012.4 |
| 20260901110032 | 72 | 245 | 6.0 | 8.0 | 0.00 | 0.46 | 0.00 | 93 | 1012.3 |
| 20260901104529 | 72 | 236 | 4.0 | 8.0 | 0.00 | 0.78 | 0.00 | 93 | 1012.1 |
| 20260901103032 | 72 | 232 | 3.0 | 7.0 | 0.00 | 0.78 | 0.00 | 93 | 1012.0 |
| 20260901101526 | 72 | 248 | 5.0 | 9.0 | 0.00 | 0.78 | 0.00 | 93 | 1012.0 |
| 20260901100025 | 72 | 248 | 10.0 | 13.0 | 0.00 | 0.78 | 0.00 | 93 | 1012.0 |
| 20260901094526 | 72 | 248 | 7.0 | 8.0 | 0.00 | 0.82 | 0.00 | 93 | 1011.9 |
| 20260901093028 | 72 | 245 | 6.0 | 10.0 | 0.00 | 0.82 | 0.00 | 93 | 1011.9 |
| 20260901091522 | 72 | 240 | 7.0 | 12.0 | 0.00 | 0.82 | 0.00 | 93 | 1011.9 |
| 20260901090020 | 73 | 233 | 6.0 | 10.0 | 0.00 | 0.82 | 0.00 | 91 | 1011.8 |
| 20260901084516 | 73 | 252 | 6.0 | 8.0 | 0.00 | 0.82 | 0.00 | 91 | 1011.7 |
| 20260901083012 | 74 | 232 | 5.0 | 8.0 | 0.00 | 0.82 | 0.00 | 91 | 1011.7 |
| 20260901081507 | 74 | 239 | 5.0 | 9.0 | 0.00 | 0.82 | 0.00 | 90 | 1011.5 |
| 20260901080003 | 74 | 236 | 7.0 | 11.0 | 0.00 | 0.82 | 0.00 | 90 | 1011.5 |
| 20260901074558 | 73 | 232 | 7.0 | 12.0 | 0.00 | 0.83 | 0.00 | 92 | 1011.7 |
| 20260901073055 | 71 | 250 | 1.0 | 7.0 | 0.00 | 0.83 | 0.00 | 93 | 1011.6 |
| 20260901071551 | 70 | 146 | 1.0 | 7.0 | 0.00 | 0.83 | 0.00 | 93 | 1011.6 |
| 20260901070052 | 70 | 181 | 0.0 | 2.0 | 0.00 | 0.83 | 0.00 | 93 | 1011.4 |
| 20260901064551 | 70 | 155 | 1.0 | 5.0 | 0.00 | 0.84 | 0.00 | 92 | 1011.6 |
| 20260901063054 | 70 | 141 | 0.0 | 3.0 | 0.00 | 0.84 | 0.00 | 93 | 1011.7 |
| 20260901061546 | 70 | 134 | 1.0 | 3.0 | 0.00 | 0.84 | 0.00 | 93 | 1012.0 |
| 20260901060045 | 70 | 149 | 0.0 | 2.0 | 0.00 | 0.84 | 0.00 | 93 | 1011.9 |
| 20260901054542 | 69 | 198 | 1.0 | 3.0 | 0.00 | 0.84 | 0.00 | 90 | 1012.3 |
| 20260901053040 | 69 | 125 | 0.0 | 2.0 | 0.00 | 0.84 | 0.00 | 88 | 1012.3 |
| 20260901051541 | 69 | 146 | 0.0 | 2.0 | 0.00 | 0.84 | 0.00 | 88 | 1012.5 |
| 20260901050038 | 69 | 150 | 0.0 | 1.0 | 0.00 | 0.84 | 0.00 | 87 | 1012.5 |
| 20260901044538 | 69 | 149 | 0.0 | 2.0 | 0.00 | 0.84 | 0.00 | 86 | 1012.3 |